Regional Weather Roundup
Issued by NWS Sioux Falls, SD

Home | Current Version | Previous Version | Text Only | Print | Product List | Glossary Off
Versions: 1 2 3 4 5 6 7 8 9 10 11 12 13 14 15 16 17 18 19 20 21 22 23 24 25 26 27 28 29 30 31 32 33 34 35 36 37 38 39 40 41 42 43 44 45 46 47 48 49 50

000
ASUS43 KFSD 221010
RWRFSD

WEATHER ROUNDUP FOR SE SOUTH DAKOTA/SW MINNESOTA/NW IOWA
NATIONAL WEATHER SERVICE SIOUX FALLS SD
400 AM CST SUN JAN 22 2017

NOTE: "FAIR" INDICATES FEW OR NO CLOUDS BELOW 12,000 FEET WITH NO
SIGNIFICANT WEATHER AND OR OBSTRUCTIONS TO VISIBILITY.


SDZ038>040-050-052>070-221100-
SOUTHEAST SOUTH DAKOTA

CITY           SKY/WX    TMP DP  RH WIND       PRES   REMARKS
BROOKINGS      LGT SNOW  32  31  96 NW9       29.62S FOG     WCI  24
CHAMBERLAIN    CLEAR     22  21  97 CALM      29.71R
HURON          CLOUDY    30  28  92 NW14      29.69R WCI  19
MADISON        CLOUDY    32  32 100 NW9         N/A  WCI  24
MITCHELL       CLOUDY    31  29  92 NW7       29.69R WCI  24
SIOUX FALLS    CLOUDY    33  30  88 NW10      29.64R WCI  25
WINNER         FAIR      26  23  88 NW7       29.71R WCI  18
YANKTON        CLOUDY    30  27  86 NW9       29.67R WCI  22
$$

MNZ071-072-080-081-089-090-097-098-221100-
SOUTHWEST MINNESOTA

CITY           SKY/WX    TMP DP  RH WIND       PRES   REMARKS
FAIRMONT       FOG       34  34 100 NW10      29.60R VSB 3/4 WCI  26
JACKSON        FOG       32  32 100 NW9       29.60R VSB 3/4 WCI  24
LUVERNE        CLOUDY    32  30  93 NW10      29.63R WCI  24
MARSHALL       CLOUDY    33  33 100 NW10      29.63S FOG     WCI  25
MONTEVIDEO     FOG       34  34 100 N6        29.65R VSB 1/2 WCI  29
PIPESTONE      CLOUDY    34  32  93 N10       29.61S FOG     WCI  26
REDWOOD FALLS  FOG       34  32  92 NW6       29.62R VSB 1/2 WCI  29
TRACY          FOG       34  34 100 NW9       29.62R VSB 3/4 WCI  27
WINDOM         CLOUDY    34  34 100 NW7       29.60R FOG     WCI  28
WORTHINGTON    CLOUDY    32  31  96 NW9       29.61R WCI  24
$$

IAZ001>003-012>014-020>022-031-032-NEZ013-014-SDZ071-221100-
NORTHWEST IOWA

CITY           SKY/WX    TMP DP  RH WIND       PRES   REMARKS
CHEROKEE       CLOUDY    32  32  99 NW5       29.62S WCI  27
DENISON        CLOUDY    32  30  93 N14       29.61S WCI  22
ESTHERVILLE    CLOUDY    32  32 100 NW8       29.59R FOG     WCI  25
LE MARS        CLOUDY    32  30  93 NW6       29.65R WCI  26
ORANGE CITY    CLOUDY    32  30  93 NW10      29.62S WCI  24
SHELDON        CLOUDY    32  32 100 NW12      29.60S WCI  23
SIOUX CITY     CLOUDY    33  30  88 N21       29.63S WCI  21
SPENCER          N/A    N/A N/A N/A MISG      29.60R
STORM LAKE     CLOUDY    32  30  93 NW10      29.61R FOG     WCI  24
$$

ABBREVIATIONS USED IN REMARKS
   TC - TEMPERATURE IN CELSIUS
  WCI - WIND CHILL INDEX
   HX - HEAT INDEX
  VSB - VISIBILITY




USA.gov is the U.S. government's official web portal to all federal, state and local government web resources and services.